Погода в Алваре

Индия     27°34′30″N   76°36′48″E
темп.,
°C
ветер,
м/с
пор.,
м/с
влажн.,
%
обл.,
%
осадки,
мм/ч
давл.,
гПа
погр.,
м
28 июня, вт
вт2823:30+36вюв2537100 0.0 1000222
02:30+34вюв384334 0.0 999468
05:30+33вюв124897 0.3 1000145
08:30+34зюз244583 0.1 1001350
11:30+40зюз543130 0.1 9992501
14:30+41з442698 0.1 9963323
17:30+37зсз143396 0.5 995363
20:30+37юз5103639 0.0 996477
29 июня, ср
ср2923:30+36зюз7113645 0.0 996482
02:30+34з713453 0.0 995600
05:30+33з9155062 0.0 995627
08:30+35зсз9124245 0.0 997979
11:30+39з773221 0.0 9971858
14:30+42зюз872698 0.0 9943437
17:30+35зюз11134057 0.0 993393
20:30+33ссв234499 1.6 996130
30 июня, чт
чт3023:30+29юз5965100 5.8 997442
02:30+26юз111682100 1.5 995422
05:30+27зюз3872100 5.7 997293
08:30+29ююв2266100 5.1 999278
11:30+27в2375100 7.8 1001386
14:30+26вюв3481100 5.6 1000397
17:30+26юв2284100 7.0 999294
20:30+27ю3580100 0.2 999234
1 июля, пт
пт123:30+27юв1282100 0.8 1000169
02:30+26зсз118594 3.0 999245
05:30+26ссз118687 5.1 999114
08:30+28сз237590 4.6 1000501
11:30+30ссз4465100 8.1 10001163
14:30+32с2359100 5.5 9981177
17:30+31зсз3262100 10.4 998839
20:30+29з357299 3.4 999331
2 июля, сб
сб223:30+29з1273100 3.5 1000246
02:30+27з1282100 3.8 99963
05:30+27з1279100 7.4 99988
08:30+29з1170100 0.4 1000265
11:30+31всв1260100 0.4 1000799
14:30+35юв234628 0.0 9971892
17:30+35юв224375 0.0 9971833
20:30+33зюз3557100 0.0 998228